Location: F?ge?el
(45.8833°N, 22.5833°E)
Time: 06:17:00
(UTC+00:00)

Cosmos 1782 Rocket - Pass Details

Date: 17 November 2025
Orbit: 600 x 626 km, 82.5° (Epoch: 04 December)

Event Time Altitude Azimuth Distance (km) Brightness Sun altitude
Rises 15:30:37 0° 183° (S) 2,897 7.4 -6.3°
Reaches altitude 10° 15:32:50 10° 182° (S) 1,994 6.5 -6.7°
Maximum altitude 15:37:15 78° 97° (E) 645 3.5 -7.4°
Drops below altitude 10° 15:41:42 10° 12° (NNE) 2,002 5.9 -8.1°
Sets 15:43:56 0° 11° (N) 2,910 6.7 -8.5°
